Danbury, CT

10:11 PM EST on December 04, 2016 (GMT -0500)
Danbury Municipal

Weather History for KDXR - December, 2012

Change the Weather History Date:

Tuesday, December 25, 2012

  Actual Average Record
Temperature  
Mean Temperature 32 °F -  
Max Temperature 37 °F 34 °F 63 °F (1964)
Min Temperature 27 °F 17 °F -10 °F (1980)
Degree Days  
Heating Degree Days 32    
Moisture  
Dew Point 28 °F    
Average Humidity 84    
Maximum Humidity 100    
Minimum Humidity 67    
Precipitation  
Precipitation 0.03 in - - ()
Sea Level Pressure  
Sea Level Pressure 30.06 in    
Wind  
Wind Speed 4 mph (North)    
Max Wind Speed 10 mph    
Max Gust Speed 18 mph    
Visibility 8 miles    
Events Rain , Snow    
Averages and records for this station are not official NWS values.
T = Trace of Precipitation, MM = Missing Value Source: NWS Daily Summary

Daily Weather History Graph

Daily Weather History Graph

Search for Another Location

Airport or City:

Trip Planner

Search our weather history database for the weather conditions in past years. The results will help you decide how hot, cold, wet, or windy it might be!

Date:

Astronomy

Dec. 25, 2012 Rise Set
Actual Time 7:18 AM EST 4:30 PM EST
Civil Twilight 6:47 AM EST 5:01 PM EST
Nautical Twilight 6:12 AM EST 5:36 PM EST
Astronomical Twilight 5:38 AM EST 6:10 PM EST
Moon 2:36 PM EST (12/25) 4:47 AM EST (12/25)
Length of Visible Light 10h 14m
Length of Day
9h 11m
Waxing Gibbous, 93% of the Moon is Illuminated
Dec 25
Waxing Gibbous
Dec 28
Full
Jan 4
Last Quarter
Jan 11
New
Jan 18
First Quarter

Hourly Weather History & Observations

Time (EST) Temp. Windchill Dew Point Humidity Pressure Visibility Wind Dir Wind Speed Gust Speed Precip Events Conditions
12:24 AM 30.2 °F 25.4 °F 28.4 °F 93% 29.95 in 2.5 mi ENE 4.6 mph - 0.00 in Snow Light Snow
12:53 AM 30.9 °F 26.2 °F 28.9 °F 92% 29.96 in 3.0 mi NE 4.6 mph - 0.00 in Snow Light Snow
1:53 AM 30.9 °F 27.5 °F 30.0 °F 96% 29.95 in 6.0 mi NE 3.5 mph - 0.00 in   Overcast
2:44 AM 30.2 °F 26.7 °F 30.2 °F 100% 29.94 in 4.0 mi NE 3.5 mph - 0.01 in Rain Light Freezing Rain
2:53 AM 30.9 °F 26.2 °F 30.0 °F 96% 29.95 in 3.0 mi NE 4.6 mph - 0.01 in Rain Light Freezing Rain
3:53 AM 30.9 °F 25.2 °F 30.0 °F 96% 29.94 in 5.0 mi NE 5.8 mph - 0.00 in Rain Light Freezing Rain
4:53 AM 32.0 °F 27.5 °F 30.0 °F 92% 29.95 in 3.0 mi NNE 4.6 mph - 0.01 in Rain Light Freezing Rain
5:02 AM 32.0 °F 28.7 °F 30.2 °F 93% 29.94 in 2.5 mi NE 3.5 mph - 0.01 in Rain Light Freezing Rain
5:15 AM 32.0 °F - 30.2 °F 93% 29.94 in 3.0 mi Calm Calm - 0.01 in Rain Light Freezing Rain
5:53 AM 32.0 °F - 30.9 °F 96% 29.97 in 4.0 mi Calm Calm - 0.01 in Rain Light Freezing Rain
6:42 AM 32.0 °F - 30.2 °F 93% 29.98 in 9.0 mi Calm Calm - 0.00 in   Overcast
6:53 AM 32.0 °F - 30.9 °F 96% 29.99 in 10.0 mi Calm Calm - 0.00 in   Overcast
7:53 AM 32.0 °F 27.5 °F 30.9 °F 96% 30.02 in 6.0 mi WNW 4.6 mph - N/A   Overcast
8:20 AM 32.0 °F 27.5 °F 30.2 °F 93% 30.01 in 4.0 mi NW 4.6 mph - N/A   Overcast
8:53 AM 33.1 °F 30.0 °F 30.9 °F 92% 30.04 in 6.0 mi NNW 3.5 mph - 0.00 in   Overcast
9:16 AM 33.8 °F - 30.2 °F 87% 30.02 in 9.0 mi Calm Calm - N/A   Scattered Clouds
9:53 AM 35.1 °F 32.2 °F 30.9 °F 85% 30.06 in 10.0 mi North 3.5 mph - N/A   Mostly Cloudy
10:27 AM 35.6 °F 30.7 °F 30.2 °F 81% 30.05 in 10.0 mi WNW 5.8 mph - N/A   Overcast
10:53 AM 35.1 °F 31.0 °F 30.0 °F 82% 30.07 in 10.0 mi NW 4.6 mph - N/A   Overcast
11:53 AM 35.1 °F 30.1 °F 30.0 °F 82% 30.05 in 10.0 mi WNW 5.8 mph - N/A   Overcast
12:17 PM 35.6 °F 29.9 °F 30.2 °F 81% 30.03 in 10.0 mi NW 6.9 mph - N/A   Mostly Cloudy
12:53 PM 37.9 °F 30.9 °F 30.0 °F 73% 30.04 in 10.0 mi NNW 10.4 mph - N/A   Overcast
1:53 PM 36.0 °F 28.5 °F 27.0 °F 70% 30.09 in 10.0 mi NNW 10.4 mph 17.3 mph N/A   Overcast
2:53 PM 36.0 °F 28.5 °F 26.1 °F 67% 30.10 in 10.0 mi North 10.4 mph 18.4 mph N/A   Overcast
3:44 PM 35.6 °F 30.7 °F 26.6 °F 70% 30.10 in 10.0 mi NW 5.8 mph - N/A   Overcast
3:53 PM 35.1 °F 31.0 °F 27.0 °F 72% 30.12 in 10.0 mi NNW 4.6 mph - N/A   Overcast
4:53 PM 33.1 °F 30.0 °F 26.1 °F 75% 30.14 in 10.0 mi North 3.5 mph - N/A   Mostly Cloudy
5:53 PM 32.0 °F 24.8 °F 24.1 °F 73% 30.19 in 10.0 mi NNW 8.1 mph 18.4 mph N/A   Overcast
6:53 PM 30.9 °F 27.5 °F 23.0 °F 72% 30.22 in 10.0 mi Variable 3.5 mph - N/A   Clear
7:53 PM 30.0 °F 22.4 °F 23.0 °F 75% 30.22 in 10.0 mi North 8.1 mph - N/A   Clear
8:53 PM 30.0 °F 24.1 °F 23.0 °F 75% 30.24 in 10.0 mi North 5.8 mph - N/A   Clear
9:53 PM 28.9 °F 22.8 °F 21.9 °F 75% 30.25 in 10.0 mi North 5.8 mph - N/A   Clear
10:53 PM 28.0 °F 20.0 °F 21.9 °F 78% 30.26 in 10.0 mi North 8.1 mph - N/A   Clear
11:53 PM 27.0 °F 21.6 °F 21.0 °F 78% 30.26 in 10.0 mi North 4.6 mph - N/A   Clear